Location: Kutna Hora
(49.9500°N, 15.2670°E)
Time: 00:54:57
(UTC+02:00)

ISS - Pass Details

Date: 31 March 2019
Orbit: 408 x 410 km, 51.6° (Epoch: 24 April)

Event Time Altitude Azimuth Distance (km) Brightness Sun altitude
Rises 21:00:22 0° 283° (WNW) 2,339 1.7 -14.9°
Reaches altitude 10° 21:02:28 10° 285° (WNW) 1,476 0.3 -15.2°
Maximum altitude 21:05:47 75° 12° (NNE) 427 -3.8 -15.7°
Enters shadow 21:06:55 37° 90° (E) 651 -3.3 -15.8°
